This is the latest recevied weather packets stored in our database for station/object KN6CRX-10. If no packets are shown the sender has not sent any weather packets the latest 10 day(s).
| Time | Temp. | Humidity | Pressure | Rain* | Wind** | Luminosity | Snow |
|---|---|---|---|---|---|---|---|
| 1788207716 | 28.33° C | 29% | 1018.4 hPa | 0 mm | - | 897 W/m² | - |
| 1788207415 | 28.33° C | 28% | 1018.6 hPa | 0 mm | - | 884 W/m² | - |
| 1788207115 | 28.33° C | 27% | 1018.9 hPa | 0 mm | - | 862 W/m² | - |
| 1788206811 | 27.78° C | 29% | 1019 hPa | 0 mm | - | 864 W/m² | - |
| 1788206511 | 27.78° C | 29% | 1018.9 hPa | 0 mm | - | 877 W/m² | - |
| 1788206206 | 27.78° C | 29% | 1018.9 hPa | 0 mm | - | 866 W/m² | - |
| 1788205902 | 27.22° C | 29% | 1018.9 hPa | 0 mm | - | 848 W/m² | - |
| 1788205596 | 26.67° C | 30% | 1019.1 hPa | 0 mm | - | 877 W/m² | - |
| 1788205292 | 27.22° C | 29% | 1019.1 hPa | 0 mm | - | 813 W/m² | - |
| 1788204992 | 26.67° C | 31% | 1019.1 hPa | 0 mm | - | 856 W/m² | - |
| 1788204687 | 26.11° C | 31% | 1019.2 hPa | 0 mm | - | 877 W/m² | - |
| 1788204382 | 26.11° C | 32% | 1019.2 hPa | 0 mm | - | 681 W/m² | - |
| 1788204077 | 26.11° C | 31% | 1019.4 hPa | 0 mm | - | 677 W/m² | - |
| 1788203774 | 25.56° C | 30% | 1019.3 hPa | 0 mm | - | 671 W/m² | - |
| 1788203469 | 25.56° C | 31% | 1019.5 hPa | 0 mm | - | 352 W/m² | - |
| 1788203164 | 25.56° C | 29% | 1019.5 hPa | 0 mm | - | 825 W/m² | - |
| 1788202863 | 25° C | 31% | 1019.7 hPa | 0 mm | - | 825 W/m² | - |
| 1788202559 | 25° C | 28% | 1019.7 hPa | 0 mm | - | 819 W/m² | - |
| 1788202254 | 25° C | 28% | 1019.7 hPa | 0 mm | - | 669 W/m² | - |
| 1788201954 | 25° C | 32% | 1019.8 hPa | 0 mm | - | 107 W/m² | - |
| 1788201650 | 24.44° C | 30% | 1019.7 hPa | 0 mm | - | 225 W/m² | - |
| 1788201349 | 25° C | 29% | 1019.9 hPa | 0 mm | - | 213 W/m² | - |
| 1788201049 | 25.56° C | 29% | 1020 hPa | 0 mm | - | 73 W/m² | - |
| 1788200749 | 25.56° C | 29% | 1020.1 hPa | 0 mm | - | 499 W/m² | - |
| 1788200444 | 25.56° C | 30% | 1020.3 hPa | 0 mm | - | 782 W/m² | - |
* Rain latest hour (hover to see other rain measurements)
** Current wind speed in m/s (hover to see current wind gust speed)